User: anonymous   Login
Location: La Pernelle
(49.6188°N, 1.2999°W)
Time: 17:52:34
(UTC+00:00)
Language:

Cosmos 1626 - Orbit

View from above orbital plane
View from above orbital plane
View from above satellite
View from above satellite

Ground track
Ground track

The orbit data is extracted from the following two-line orbital elements,

1 15494U 85009A   21262.89884643  .00000704  00000-0  26796-4 0  9993
2 15494  82.4779 130.0973 0002799  34.6116 325.5303 15.25075438  5368
Epoch (UTC): 19 September 2021 21:34:20
Eccentricity: 0.0002799
inclination: 82.4779°
perigee height: 488 km
apogee height: 492 km
right ascension of ascending node: 130.0973°
argument of perigee: 34.6116°
revolutions per day: 15.25075438
mean anomaly at epoch: 325.5303°
orbit number at epoch: 536

The dashed part of the orbit path shows where the satellite is in the earth's shadow,  

DLR